This demonstration page uses our WeatherBlox Daily Observations layout. Learn more.

Left ArrowRight Arrow

Hourly Observations for April 16, 2018

Temp ( °F °C ) Dew Point ( °F °C ) Humidity (%) Winds ( mph kmh ) Pressure ( in mb ) Visibility ( mi km ) Precip ( " mm )
12:04 am 00:04 Cloudy 45 7.2 36 2.2 71 71 W 14 22 29.80 1009 10 16 0.00 0.00
12:29 am 00:29 Cloudy with Light Rain 43 6.1 37 2.8 80 80 WNW 15 24 29.77 1008 10 16 0.00 0.03
12:53 am 00:53 Cloudy 43 6.1 37 2.8 80 80 W 13 20 29.76 1008 10 16 0.00 0.03
1:53 am 01:53 Cloudy 42 5.6 33 0.6 71 71 W 16 26 29.77 1008 10 16 0.00 0.00
2:33 am 02:33 Cloudy 42 5.6 36 2.2 79 79 W 10 17 29.80 1009 10 16 0.00 0.00
2:53 am 02:53 Cloudy 42 5.6 34 1.1 73 73 W 9 15 29.78 1008 10 16 0.00 0.00
3:22 am 03:22 Cloudy 41 5 34 1.1 76 76 W 12 19 29.80 1009 10 16 0.00 0.00
3:43 am 03:43 Cloudy 40 4.4 31 -0.6 70 70 W 14 22 29.80 1009 10 16 0.00 0.03
3:53 am 03:53 Cloudy 40 4.4 32 0 73 73 W 12 19 29.78 1009 10 16 0.00 0.03
4:53 am 04:53 Cloudy 39 3.9 32 0 76 76 W 12 19 29.78 1009 10 16 0.00 0.00
5:53 am 05:53 Cloudy 38 3.3 32 0 79 79 W 8 13 29.79 1009 10 16 0.00 0.00
6:08 am 06:08 Cloudy 38 3.3 31 -0.6 76 76 W 12 19 29.80 1009 10 16 0.00 0.00
6:53 am 06:53 Cloudy 38 3.3 33 0.6 83 83 W 5 7 29.79 1009 10 16 0.00 0.00
7:53 am 07:53 Cloudy 36 2.2 32 0 86 86 W 8 13 29.81 1010 10 16 0.00 0.03
8:18 am 08:18 Cloudy 36 2.2 32 0 86 86 W 10 17 29.85 1011 10 16 0.00 0.03
8:53 am 08:53 Cloudy 37 2.8 31 -0.6 79 79 VRB 7 11 29.83 1010 10 16 0.00 0.03
9:40 am 09:40 Cloudy with Light Snow 37 2.8 32 0 82 82 W 10 17 29.85 1011 9 14 0.00 0.03
9:53 am 09:53 Cloudy 37 2.8 30 -1.1 76 76 W 14 22 29.83 1010 10 16 0.00 0.03
10:03 am 10:03 Cloudy 37 2.8 30 -1.1 76 76 W 10 17 29.85 1011 10 16 0.00 0.00
10:17 am 10:17 Cloudy 36 2.2 31 -0.6 82 82 WNW 10 17 29.85 1011 10 16 0.00 0.00
10:53 am 10:53 Cloudy with Light Snow 35 1.7 30 -1.1 82 82 W 12 19 29.84 1011 4 6 0.01 0.25
11:27 am 11:27 Cloudy 37 2.8 29 -1.7 73 73 W 16 26 29.85 1011 9 14 0.00 0.03
11:44 am 11:44 Cloudy 36 2.2 28 -2.2 73 73 W 18 30 29.88 1012 8 13 0.00 0.03
11:53 am 11:53 Cloudy with Light Snow 35 1.7 28 -2.2 76 76 W 15 24 29.86 1011 6 10 0.00 0.03
12:00 pm 12:00 Cloudy 35 1.7 27 -2.8 72 72 W 12 19 29.88 1012 9 14 0.00 0.03
12:19 pm 12:19 Cloudy 36 2.2 26 -3.3 67 67 W 13 20 29.88 1012 10 16 0.00 0.03
12:36 pm 12:36 Cloudy with Light Snow 35 1.7 27 -2.8 72 72 W 17 28 29.88 1012 3 4 0.00 0.03
12:48 pm 12:48 Cloudy with Light Snow 36 2 27 -3 70 70 W 17 28 29.88 1012 8 13 0.00 0.03
12:53 pm 12:53 Cloudy with Light Snow 37 2.8 27 -2.8 67 67 WSW 15 24 29.87 1012 9 14 0.00 0.03
1:53 pm 13:53 Cloudy with Light Snow 36 2.2 28 -2.2 73 73 W 10 17 29.87 1012 4 6 0.00 0.03
2:05 pm 14:05 Windy with Snow Likely 35 1.7 28 -2.2 76 76 W 20 31 29.88 1012 2 2 0.00 0.03
2:16 pm 14:16 Cloudy with Light Snow 36 2.2 27 -2.8 70 70 W 12 19 29.91 1013 4 6 0.00 0.03
2:53 pm 14:53 Cloudy with Light Snow 36 2.2 25 -3.9 64 64 W 14 22 29.88 1012 6 10 0.00 0.03
2:56 pm 14:56 Windy with Snow Likely 35 1.7 25 -3.9 67 67 W 22 35 29.91 1013 2 3 0.00 0.03
3:03 pm 15:03 Cloudy with Light Snow 34 1.1 26 -3.3 73 73 W 9 15 29.91 1013 2 2 0.00 0.03
3:05 pm 15:05 Cloudy with Light Snow 35 1.7 27 -2.8 72 72 W 10 17 29.91 1013 3 4 0.00 0.03
3:12 pm 15:12 Cloudy 35 1.7 26 -3.3 70 70 W 13 20 29.91 1013 9 14 0.00 0.03
3:26 pm 15:26 Cloudy with Light Snow 35 1.7 27 -2.8 72 72 W 16 26 29.91 1013 1 2 0.00 0.03
3:33 pm 15:33 Cloudy with Snow 34 1.1 29 -1.7 82 82 W 16 26 29.91 1013 1 1 0.01 0.25
3:43 pm 15:43 Cloudy with Snow 31 -0.6 28 -2.2 89 89 W 16 26 29.94 1014 0 0 0.01 0.25
3:51 pm 15:51 Cloudy with Light Snow 34 1 28 -2 81 81 W 12 19 29.91 1013 2 3 0.01 0.25
3:53 pm 15:53 Cloudy with Light Snow 34 1.1 29 -1.7 82 82 W 14 22 29.90 1013 5 8 0.01 0.25
4:03 pm 16:03 Cloudy 37 2.8 29 -1.7 73 73 W 16 26 29.91 1013 10 16 0.00 0.03
4:21 pm 16:21 Windy with Snow Likely 34 1.1 27 -2.8 76 76 W 21 33 29.91 1013 1 2 0.00 0.03
4:28 pm 16:28 Cloudy with Snow 32 0 28 -2.2 85 85 W 14 22 29.94 1014 1 1 0.01 0.25
4:35 pm 16:35 Cloudy with Light Snow 36 2.2 29 -1.7 76 76 W 12 19 29.91 1013 3 4 0.01 0.25
4:42 pm 16:42 Cloudy 37 2.8 27 -2.8 67 67 WNW 17 28 29.91 1013 9 14 0.01 0.25
4:53 pm 16:53 Cloudy with Light Snow 35 1.7 29 -1.7 78 78 W 17 28 29.91 1013 5 8 0.01 0.25
5:26 pm 17:26 Cloudy with Light Snow 34 1.1 28 -2.2 79 79 W 15 24 29.94 1014 2 3 0.00 0.03
5:30 pm 17:30 Cloudy with Light Snow 34 1.1 30 -1.1 85 85 W 17 28 29.94 1014 1 2 0.00 0.03
5:34 pm 17:34 Cloudy with Light Snow 34 1.1 27 -2.8 76 76 W 17 28 29.94 1014 2 3 0.00 0.03
5:37 pm 17:37 Cloudy with Light Snow 35 1.7 26 -3.3 70 70 W 14 22 29.94 1014 3 5 0.00 0.03
5:53 pm 17:53 Cloudy 36 2.2 26 -3.3 67 67 W 16 26 29.93 1014 10 16 0.00 0.03
6:53 pm 18:53 Cloudy with Light Snow 36 2.2 26 -3.3 67 67 W 16 26 29.96 1015 9 14 0.00 0.03
7:53 pm 19:53 Cloudy 35 1.7 26 -3.3 70 70 W 10 17 29.97 1015 10 16 0.00 0.03
8:18 pm 20:18 Cloudy 34 1.1 27 -2.8 76 76 W 15 24 30.00 1016 9 14 0.00 0.03
8:53 pm 20:53 Cloudy 34 1.1 27 -2.8 76 76 W 14 22 29.98 1015 10 16 0.00 0.03
9:21 pm 21:21 Cloudy 34 1.1 27 -2.8 76 76 W 13 20 30.00 1016 10 16 0.00 0.00
9:51 pm 21:51 Cloudy with Light Wintry Mix 34 1 27 -3 75 75 W 10 17 30.00 1016 10 16 0.00 0.03
9:53 pm 21:53 Cloudy with Light Wintry Mix 34 1.1 26 -3.3 73 73 W 10 17 30.00 1016 10 16 0.00 0.03
10:10 pm 22:10 Cloudy with Light Wintry Mix 34 1.1 26 -3.3 73 73 W 14 22 30.00 1016 10 16 0.00 0.03
10:18 pm 22:18 Cloudy with Light Wintry Mix 34 1.1 26 -3.3 73 73 W 13 20 30.00 1016 10 16 0.00 0.03
10:53 pm 22:53 Cloudy with Light Wintry Mix 34 1.1 26 -3.3 73 73 W 13 20 30.00 1016 10 16 0.00 0.03
11:44 pm 23:44 Cloudy with Light Wintry Mix 34 1.1 27 -2.8 76 76 W 9 15 30.00 1016 10 16 0.00 0.03
11:53 pm 23:53 Cloudy 34 1.1 27 -2.8 76 76 WSW 9 15 30.00 1016 10 16 0.00 0.03

Powered by AerisWeather